Location: Cucq
(50.4773°N, 1.6202°E)
Time: 09:28:57
(UTC+00:00)

Cosmos 2360 Rocket - Pass Details

Date: 07 August 2020
Orbit: 833 x 845 km, 71.0° (Epoch: 20 September)

Event Time Altitude Azimuth Distance (km) Brightness Sun altitude
Rises 00:26:03 0° 323° (NW) 3,416 6.0 -22.9°
Reaches altitude 10° 00:28:50 10° 312° (NW) 2,476 5.0 -22.9°
Maximum altitude 00:33:29 27° 256° (WSW) 1,577 3.4 -22.8°
Enters shadow 00:33:50 27° 250° (WSW) 1,583 3.3 -22.8°
